N737PJ MYNN-TNCM

Flight info

Callsign N737PJ
Flight time 2h 4m
Altitude 39000
Route BOSAR DCT HAGIT Y290 SLUGO
Aircraft B737/M-SDE2E3FGHIRWXY/LB1

Departure

Time 2026-05-05 15:09
Airport Lynden Pindling International Airport (MYNN)

Arrival

Time 2026-05-05 17:13
Airport Princess Juliana International Airport (TNCM)
Time Latitude Longitude Altitude Speed Heading
2026-05-05 14:43 25.03123 -77.45635 15 ft 0 kts 225°
2026-05-05 14:59 25.03122 -77.45636 15 ft 1 kts 226°
2026-05-05 14:59 25.03118 -77.45651 16 ft 3 kts 263°
2026-05-05 15:00 25.03135 -77.45683 15 ft 7 kts 313°
2026-05-05 15:00 25.03163 -77.45706 15 ft 9 kts 334°
2026-05-05 15:00 25.03259 -77.45688 15 ft 13 kts 19°
2026-05-05 15:00 25.03352 -77.45652 15 ft 16 kts 19°
2026-05-05 15:01 25.03433 -77.45610 16 ft 13 kts 38°
2026-05-05 15:01 25.03506 -77.45532 17 ft 14 kts 45°
2026-05-05 15:01 25.03581 -77.45534 16 ft 14 kts 316°
2026-05-05 15:01 25.03654 -77.45615 16 ft 16 kts 315°
2026-05-05 15:02 25.03737 -77.45706 18 ft 18 kts 315°
2026-05-05 15:02 25.03831 -77.45809 18 ft 19 kts 315°
2026-05-05 15:02 25.03923 -77.45914 18 ft 19 kts 315°
2026-05-05 15:02 25.04014 -77.46015 16 ft 18 kts 315°
2026-05-05 15:03 25.04102 -77.46112 17 ft 18 kts 315°
2026-05-05 15:03 25.04187 -77.46206 16 ft 17 kts 314°
2026-05-05 15:03 25.04268 -77.46297 17 ft 17 kts 315°
2026-05-05 15:03 25.04353 -77.46393 18 ft 18 kts 314°
2026-05-05 15:04 25.04445 -77.46494 16 ft 19 kts 315°
2026-05-05 15:04 25.04535 -77.46594 17 ft 18 kts 315°
2026-05-05 15:04 25.04622 -77.46691 17 ft 17 kts 315°
2026-05-05 15:04 25.04707 -77.46780 17 ft 17 kts 316°
2026-05-05 15:05 25.04865 -77.46956 18 ft 16 kts 313°
2026-05-05 15:05 25.04938 -77.47041 17 ft 15 kts 314°
2026-05-05 15:05 25.05009 -77.47121 17 ft 14 kts 315°
2026-05-05 15:06 25.05077 -77.47197 17 ft 14 kts 314°
2026-05-05 15:06 25.05142 -77.47270 19 ft 13 kts 314°
2026-05-05 15:06 25.05204 -77.47341 17 ft 13 kts 307°
2026-05-05 15:06 25.05220 -77.47380 17 ft 2 kts 282°
2026-05-05 15:07 25.05221 -77.47388 17 ft 1 kts 279°
2026-05-05 15:07 25.05222 -77.47393 17 ft 1 kts 279°
2026-05-05 15:07 25.05222 -77.47398 17 ft 1 kts 274°
2026-05-05 15:07 25.05220 -77.47406 17 ft 2 kts 260°
2026-05-05 15:08 25.05217 -77.47426 18 ft 4 kts 256°
2026-05-05 15:08 25.05206 -77.47465 19 ft 8 kts 251°
2026-05-05 15:08 25.05179 -77.47529 21 ft 11 kts 225°
2026-05-05 15:08 25.05088 -77.47466 20 ft 47 kts 135°
2026-05-05 15:09 25.04586 -77.46910 24 ft 153 kts 135°
2026-05-05 15:09 25.03703 -77.45922 524 ft 206 kts 136°
2026-05-05 15:09 25.02631 -77.44746 1287 ft 228 kts 136°
2026-05-05 15:09 25.01562 -77.43374 2209 ft 237 kts 127°
2026-05-05 15:10 25.00591 -77.41846 3253 ft 247 kts 126°
2026-05-05 15:10 24.99621 -77.40276 4240 ft 250 kts 125°
2026-05-05 15:10 24.98638 -77.38663 5157 ft 257 kts 126°
2026-05-05 15:10 24.97623 -77.37017 6067 ft 262 kts 126°
2026-05-05 15:11 24.96552 -77.35308 6733 ft 282 kts 127°
2026-05-05 15:11 24.95402 -77.33496 7619 ft 293 kts 127°
2026-05-05 15:11 24.94221 -77.31650 8731 ft 297 kts 128°
2026-05-05 15:11 24.93016 -77.29780 9841 ft 302 kts 128°
2026-05-05 15:12 24.91777 -77.27867 10698 ft 315 kts 128°
2026-05-05 15:12 24.90454 -77.25835 11307 ft 334 kts 128°
2026-05-05 15:12 24.89075 -77.23720 12149 ft 344 kts 128°
2026-05-05 15:12 24.87668 -77.21562 13117 ft 350 kts 128°
2026-05-05 15:13 24.86238 -77.19369 14070 ft 355 kts 128°
2026-05-05 15:13 24.84800 -77.17168 14894 ft 362 kts 128°
2026-05-05 15:13 24.83317 -77.14900 15741 ft 368 kts 129°
2026-05-05 15:13 24.81808 -77.12594 16588 ft 374 kts 129°
2026-05-05 15:14 24.80275 -77.10253 17427 ft 380 kts 129°
2026-05-05 15:14 24.78715 -77.07871 18257 ft 387 kts 129°
2026-05-05 15:14 24.77128 -77.05450 18976 ft 393 kts 129°
2026-05-05 15:14 24.75519 -77.02996 19706 ft 398 kts 128°
2026-05-05 15:15 24.73892 -77.00514 20454 ft 402 kts 128°
2026-05-05 15:15 24.72240 -76.97997 21190 ft 408 kts 128°
2026-05-05 15:15 24.70566 -76.95448 21926 ft 414 kts 128°
2026-05-05 15:15 24.68869 -76.92865 22619 ft 420 kts 128°
2026-05-05 15:16 24.67149 -76.90247 23315 ft 425 kts 128°
2026-05-05 15:16 24.65403 -76.87592 23942 ft 431 kts 128°
2026-05-05 15:16 24.63651 -76.84900 24575 ft 435 kts 126°
2026-05-05 15:16 24.62094 -76.82077 25232 ft 439 kts 121°
2026-05-05 15:17 24.60614 -76.79127 25863 ft 443 kts 120°
2026-05-05 15:17 24.59159 -76.76127 26468 ft 447 kts 120°
2026-05-05 15:17 24.57693 -76.73082 27057 ft 452 kts 120°
2026-05-05 15:17 24.56213 -76.70022 27644 ft 456 kts 120°
2026-05-05 15:18 24.54706 -76.66935 28227 ft 459 kts 120°
2026-05-05 15:18 24.53183 -76.63840 28796 ft 463 kts 120°
2026-05-05 15:18 24.51637 -76.60717 29348 ft 467 kts 120°
2026-05-05 15:18 24.50072 -76.57571 29900 ft 471 kts 120°
2026-05-05 15:19 24.48494 -76.54403 30375 ft 475 kts 120°
2026-05-05 15:19 24.46899 -76.51207 30792 ft 479 kts 120°
2026-05-05 15:19 24.45291 -76.47986 31213 ft 483 kts 120°
2026-05-05 15:19 24.43691 -76.44784 31610 ft 486 kts 120°
2026-05-05 15:20 24.42039 -76.41479 32010 ft 489 kts 120°
2026-05-05 15:20 24.40396 -76.38193 32386 ft 493 kts 120°
2026-05-05 15:20 24.38766 -76.34936 32729 ft 496 kts 120°
2026-05-05 15:20 24.37103 -76.31614 33133 ft 497 kts 120°
2026-05-05 15:21 24.35435 -76.28284 33633 ft 496 kts 120°
2026-05-05 15:21 24.33774 -76.24970 34139 ft 495 kts 119°
2026-05-05 15:21 24.32114 -76.21660 34539 ft 494 kts 119°
2026-05-05 15:21 24.30456 -76.18356 34912 ft 495 kts 119°
2026-05-05 15:22 24.28797 -76.15055 35296 ft 494 kts 119°
2026-05-05 15:22 24.27140 -76.11758 35706 ft 493 kts 120°
2026-05-05 15:22 24.25486 -76.08470 36113 ft 492 kts 120°
2026-05-05 15:22 24.23832 -76.05186 36482 ft 491 kts 119°
2026-05-05 15:23 24.22182 -76.01911 36830 ft 491 kts 119°
2026-05-05 15:23 24.20528 -75.98631 37178 ft 491 kts 119°
2026-05-05 15:23 24.18878 -75.95360 37542 ft 490 kts 119°
2026-05-05 15:23 24.17251 -75.92138 37895 ft 489 kts 119°
2026-05-05 15:24 24.15601 -75.88872 38225 ft 489 kts 119°
2026-05-05 15:24 24.13947 -75.85600 38586 ft 488 kts 119°
2026-05-05 15:24 24.12305 -75.82354 38915 ft 486 kts 119°
2026-05-05 15:24 24.10665 -75.79113 39091 ft 489 kts 119°
2026-05-05 15:25 24.09002 -75.75832 39078 ft 495 kts 119°
2026-05-05 15:25 24.05643 -75.69209 39096 ft 506 kts 120°
2026-05-05 15:26 24.02189 -75.62406 39091 ft 515 kts 120°
2026-05-05 15:26 23.98704 -75.55552 39076 ft 515 kts 120°
2026-05-05 15:27 23.95219 -75.48706 39084 ft 515 kts 120°
2026-05-05 15:27 23.91733 -75.41871 39082 ft 514 kts 120°
2026-05-05 15:28 23.88252 -75.35054 39083 ft 512 kts 120°
2026-05-05 15:28 23.84783 -75.28269 39079 ft 511 kts 120°
2026-05-05 15:29 23.81321 -75.21509 39081 ft 509 kts 120°
2026-05-05 15:29 23.77861 -75.14761 39083 ft 508 kts 120°
2026-05-05 15:30 23.74429 -75.08078 39082 ft 508 kts 120°
2026-05-05 15:30 23.70978 -75.01365 39085 ft 506 kts 121°
2026-05-05 15:31 23.67533 -74.94675 39083 ft 505 kts 121°
2026-05-05 15:31 23.64094 -74.88005 39083 ft 504 kts 121°
2026-05-05 15:32 23.60655 -74.81344 39081 ft 503 kts 120°
2026-05-05 15:32 23.57215 -74.74692 39084 ft 503 kts 120°
2026-05-05 15:33 23.53776 -74.68049 39086 ft 503 kts 120°
2026-05-05 15:33 23.50352 -74.61444 39090 ft 504 kts 121°
2026-05-05 15:34 23.46892 -74.54777 39088 ft 505 kts 121°
2026-05-05 15:34 23.43430 -74.48117 39088 ft 506 kts 121°
2026-05-05 15:35 23.39958 -74.41446 39089 ft 506 kts 121°
2026-05-05 15:35 23.36484 -74.34780 39088 ft 506 kts 121°
2026-05-05 15:36 23.33018 -74.28138 39083 ft 504 kts 121°
2026-05-05 15:36 23.29575 -74.21548 39082 ft 502 kts 121°
2026-05-05 15:37 23.26124 -74.14953 39082 ft 501 kts 121°
2026-05-05 15:37 23.23254 -74.09475 39074 ft 500 kts 121°
2026-05-05 15:38 23.19802 -74.02893 39088 ft 501 kts 121°
2026-05-05 15:38 23.16338 -73.96297 39098 ft 502 kts 121°
2026-05-05 15:39 23.12870 -73.89703 39083 ft 502 kts 121°
2026-05-05 15:39 23.09423 -73.83157 39087 ft 502 kts 121°
2026-05-05 15:40 23.05952 -73.76573 39090 ft 502 kts 121°
2026-05-05 15:40 23.02474 -73.69986 39091 ft 502 kts 121°
2026-05-05 15:41 22.99002 -73.63417 39089 ft 501 kts 122°
2026-05-05 15:41 22.95532 -73.56862 39085 ft 500 kts 122°
2026-05-05 15:42 22.92065 -73.50319 39086 ft 499 kts 122°
2026-05-05 15:42 22.88603 -73.43796 39087 ft 498 kts 122°
2026-05-05 15:43 22.85146 -73.37288 39066 ft 498 kts 121°
2026-05-05 15:43 22.81703 -73.30817 39087 ft 499 kts 121°
2026-05-05 15:44 22.78229 -73.24297 39093 ft 500 kts 121°
2026-05-05 15:44 22.74737 -73.17750 39096 ft 502 kts 121°
2026-05-05 15:45 22.71233 -73.11189 39093 ft 503 kts 121°
2026-05-05 15:45 22.67718 -73.04617 39090 ft 504 kts 121°
2026-05-05 15:46 22.64223 -72.98088 39091 ft 505 kts 121°
2026-05-05 15:46 22.60698 -72.91513 39088 ft 505 kts 122°
2026-05-05 15:47 22.57167 -72.84934 39091 ft 506 kts 122°
2026-05-05 15:47 22.53630 -72.78353 39088 ft 506 kts 122°
2026-05-05 15:48 22.50090 -72.71775 39094 ft 506 kts 122°
2026-05-05 15:48 22.46548 -72.65202 39069 ft 506 kts 121°
2026-05-05 15:49 22.43006 -72.58634 39085 ft 505 kts 121°
2026-05-05 15:49 22.39460 -72.52070 39094 ft 506 kts 121°
2026-05-05 15:50 22.35903 -72.45494 39092 ft 506 kts 121°
2026-05-05 15:50 22.32348 -72.38931 39091 ft 507 kts 121°
2026-05-05 15:51 22.28809 -72.32403 39093 ft 507 kts 121°
2026-05-05 15:51 22.25242 -72.25833 39093 ft 507 kts 121°
2026-05-05 15:52 22.21685 -72.19288 39092 ft 505 kts 122°
2026-05-05 15:52 22.18134 -72.12764 39085 ft 504 kts 122°
2026-05-05 15:53 22.14585 -72.06252 39089 ft 502 kts 122°
2026-05-05 15:53 22.11042 -71.99758 39091 ft 502 kts 122°
2026-05-05 15:54 22.07498 -71.93270 39070 ft 501 kts 122°
2026-05-05 15:54 22.03978 -71.86833 39079 ft 493 kts 122°
2026-05-05 15:55 22.00550 -71.80571 39078 ft 486 kts 122°
2026-05-05 15:55 21.97112 -71.74300 39089 ft 486 kts 122°
2026-05-05 15:56 21.93664 -71.68021 39096 ft 487 kts 122°
2026-05-05 15:56 21.90210 -71.61734 39089 ft 487 kts 122°
2026-05-05 15:57 21.86748 -71.55443 39089 ft 488 kts 122°
2026-05-05 15:57 21.83288 -71.49159 39090 ft 488 kts 122°
2026-05-05 15:58 21.79850 -71.42925 39089 ft 487 kts 122°
2026-05-05 15:58 21.76385 -71.36649 39087 ft 487 kts 122°
2026-05-05 15:59 21.72921 -71.30381 39093 ft 487 kts 122°
2026-05-05 15:59 21.69457 -71.24121 39066 ft 487 kts 122°
2026-05-05 16:00 21.65990 -71.17861 39080 ft 487 kts 123°
2026-05-05 16:00 21.62519 -71.11603 39095 ft 487 kts 123°
2026-05-05 16:01 21.59050 -71.05352 39092 ft 488 kts 123°
2026-05-05 16:01 21.55442 -70.99178 39090 ft 488 kts 126°
2026-05-05 16:02 21.51592 -70.93182 39091 ft 488 kts 127°
2026-05-05 16:02 21.47707 -70.87196 39082 ft 488 kts 128°
2026-05-05 16:03 21.43866 -70.81218 39091 ft 489 kts 127°
2026-05-05 16:03 21.40015 -70.75186 39094 ft 491 kts 127°
2026-05-05 16:04 21.36146 -70.69121 39090 ft 492 kts 127°
2026-05-05 16:04 21.32274 -70.63060 39092 ft 492 kts 127°
2026-05-05 16:05 21.28417 -70.57032 39074 ft 493 kts 128°
2026-05-05 16:05 21.24525 -70.50957 39082 ft 495 kts 129°
2026-05-05 16:06 21.20614 -70.44859 39100 ft 497 kts 129°
2026-05-05 16:06 21.16689 -70.38746 39100 ft 498 kts 129°
2026-05-05 16:07 21.12747 -70.32613 39093 ft 499 kts 129°
2026-05-05 16:07 21.08804 -70.26485 39095 ft 500 kts 129°
2026-05-05 16:08 21.04878 -70.20389 39090 ft 499 kts 129°
2026-05-05 16:08 21.00931 -70.14267 39092 ft 499 kts 129°
2026-05-05 16:09 20.96979 -70.08145 39096 ft 499 kts 129°
2026-05-05 16:09 20.93055 -70.02073 39091 ft 499 kts 129°
2026-05-05 16:10 20.89106 -69.95968 39080 ft 498 kts 130°
2026-05-05 16:10 20.85157 -69.89870 39097 ft 498 kts 130°
2026-05-05 16:11 20.81211 -69.83784 39095 ft 498 kts 130°
2026-05-05 16:12 20.73321 -69.71633 39094 ft 497 kts 130°
2026-05-05 16:13 20.63493 -69.56534 39096 ft 496 kts 130°
2026-05-05 16:13 20.59545 -69.50480 39099 ft 496 kts 130°
2026-05-05 16:14 20.51692 -69.38455 39092 ft 494 kts 130°
2026-05-05 16:15 20.43851 -69.26473 39098 ft 491 kts 130°
2026-05-05 16:16 20.36029 -69.14547 39099 ft 490 kts 130°
2026-05-05 16:17 20.30172 -69.05632 39101 ft 489 kts 130°
2026-05-05 16:18 20.24340 -68.96770 39101 ft 489 kts 130°
2026-05-05 16:19 20.18504 -68.87913 39101 ft 489 kts 130°
2026-05-05 16:19 20.12637 -68.79021 39104 ft 489 kts 130°
2026-05-05 16:20 20.04883 -68.67095 39106 ft 491 kts 128°
2026-05-05 16:22 19.95554 -68.51874 39093 ft 491 kts 127°
2026-05-05 16:23 19.88048 -68.39761 39102 ft 492 kts 128°
2026-05-05 16:23 19.82386 -68.30643 39105 ft 493 kts 128°
2026-05-05 16:24 19.78607 -68.24564 39104 ft 493 kts 128°
2026-05-05 16:25 19.72955 -68.15484 39095 ft 493 kts 127°
2026-05-05 16:25 19.67275 -68.06371 39107 ft 494 kts 127°
2026-05-05 16:26 19.60318 -67.95229 39104 ft 495 kts 127°
2026-05-05 16:27 19.56520 -67.89155 39105 ft 495 kts 127°
2026-05-05 16:27 19.52712 -67.83069 39104 ft 495 kts 127°
2026-05-05 16:28 19.48905 -67.76992 39104 ft 495 kts 127°
2026-05-05 16:28 19.45085 -67.70920 39105 ft 494 kts 127°
2026-05-05 16:29 19.41266 -67.64863 39107 ft 494 kts 127°
2026-05-05 16:29 19.37469 -67.58842 39107 ft 494 kts 127°
2026-05-05 16:30 19.33645 -67.52781 39091 ft 494 kts 127°
2026-05-05 16:30 19.29832 -67.46742 39101 ft 493 kts 127°
2026-05-05 16:31 19.26021 -67.40714 39105 ft 492 kts 127°
2026-05-05 16:31 19.22212 -67.34688 39104 ft 492 kts 127°
2026-05-05 16:32 19.18397 -67.28657 39105 ft 492 kts 127°
2026-05-05 16:32 19.14611 -67.22676 39102 ft 492 kts 127°
2026-05-05 16:33 19.10799 -67.16659 39103 ft 492 kts 127°
2026-05-05 16:33 19.06980 -67.10638 39105 ft 492 kts 127°
2026-05-05 16:34 19.03162 -67.04624 39102 ft 492 kts 127°
2026-05-05 16:34 18.99340 -66.98610 39102 ft 493 kts 127°
2026-05-05 16:35 18.95517 -66.92600 39090 ft 493 kts 127°
2026-05-05 16:35 18.91711 -66.86622 39092 ft 492 kts 127°
2026-05-05 16:36 18.87887 -66.80621 39099 ft 492 kts 127°
2026-05-05 16:36 18.84059 -66.74619 39096 ft 492 kts 127°
2026-05-05 16:37 18.80231 -66.68621 39097 ft 492 kts 127°
2026-05-05 16:37 18.76911 -66.62296 39093 ft 497 kts 112°
2026-05-05 16:38 18.75386 -66.55226 39089 ft 500 kts 95°
2026-05-05 16:38 18.74940 -66.47906 39087 ft 500 kts 94°
2026-05-05 16:39 18.74540 -66.40572 39086 ft 500 kts 94°
2026-05-05 16:39 18.74081 -66.33234 39088 ft 500 kts 95°
2026-05-05 16:40 18.73586 -66.25908 39089 ft 500 kts 95°
2026-05-05 16:40 18.73085 -66.18630 39093 ft 500 kts 95°
2026-05-05 16:41 18.72578 -66.11266 39097 ft 500 kts 95°
2026-05-05 16:41 18.72077 -66.03998 39096 ft 500 kts 95°
2026-05-05 16:42 18.71570 -65.96680 39105 ft 500 kts 95°
2026-05-05 16:42 18.71061 -65.89370 39103 ft 499 kts 95°
2026-05-05 16:43 18.70550 -65.82069 39111 ft 499 kts 95°
2026-05-05 16:43 18.70035 -65.74760 39109 ft 499 kts 95°
2026-05-05 16:44 18.69518 -65.67467 39115 ft 499 kts 95°
2026-05-05 16:44 18.68997 -65.60163 39115 ft 499 kts 95°
2026-05-05 16:45 18.68475 -65.52864 39116 ft 498 kts 95°
2026-05-05 16:45 18.67952 -65.45610 39113 ft 498 kts 95°
2026-05-05 16:46 18.67690 -65.41972 38760 ft 497 kts 95°
2026-05-05 16:46 18.67428 -65.38359 38298 ft 491 kts 95°
2026-05-05 16:46 18.67100 -65.34792 37847 ft 484 kts 98°
2026-05-05 16:46 18.66597 -65.31303 37408 ft 478 kts 100°
2026-05-05 16:47 18.66020 -65.27863 36946 ft 473 kts 101°
2026-05-05 16:47 18.65430 -65.24511 36511 ft 468 kts 101°
2026-05-05 16:47 18.64838 -65.21146 36078 ft 463 kts 101°
2026-05-05 16:47 18.64262 -65.17811 35628 ft 460 kts 101°
2026-05-05 16:48 18.63703 -65.14504 35179 ft 456 kts 100°
2026-05-05 16:48 18.63157 -65.11226 34740 ft 453 kts 100°
2026-05-05 16:48 18.62620 -65.07965 34295 ft 450 kts 100°
2026-05-05 16:48 18.62086 -65.04714 33803 ft 447 kts 100°
2026-05-05 16:49 18.61558 -65.01490 33333 ft 443 kts 100°
2026-05-05 16:49 18.61035 -64.98301 32887 ft 439 kts 100°
2026-05-05 16:49 18.60522 -64.95175 32453 ft 435 kts 101°
2026-05-05 16:49 18.60006 -64.92040 32021 ft 432 kts 101°
2026-05-05 16:50 18.59494 -64.88937 31601 ft 428 kts 101°
2026-05-05 16:50 18.58987 -64.85862 31189 ft 424 kts 101°
2026-05-05 16:50 18.58482 -64.82808 30775 ft 420 kts 101°
2026-05-05 16:50 18.57981 -64.79785 30373 ft 417 kts 102°
2026-05-05 16:51 18.57484 -64.76787 29934 ft 414 kts 102°
2026-05-05 16:51 18.56992 -64.73815 29451 ft 409 kts 102°
2026-05-05 16:51 18.56503 -64.70871 28990 ft 405 kts 102°
2026-05-05 16:51 18.56020 -64.67963 28568 ft 400 kts 101°
2026-05-05 16:52 18.55542 -64.65092 28128 ft 396 kts 101°
2026-05-05 16:52 18.55069 -64.62241 27690 ft 393 kts 102°
2026-05-05 16:52 18.54601 -64.59427 27270 ft 389 kts 101°
2026-05-05 16:52 18.54134 -64.56628 26844 ft 385 kts 103°
2026-05-05 16:53 18.53670 -64.53851 26422 ft 382 kts 102°
2026-05-05 16:53 18.53217 -64.51139 26009 ft 380 kts 102°
2026-05-05 16:53 18.52760 -64.48409 25592 ft 377 kts 101°
2026-05-05 16:53 18.52304 -64.45691 25174 ft 375 kts 102°
2026-05-05 16:54 18.51853 -64.42998 24747 ft 373 kts 102°
2026-05-05 16:54 18.51402 -64.40312 24322 ft 371 kts 101°
2026-05-05 16:54 18.50955 -64.37643 23896 ft 370 kts 103°
2026-05-05 16:54 18.50506 -64.34975 23407 ft 369 kts 102°
2026-05-05 16:55 18.50060 -64.32324 22929 ft 366 kts 101°
2026-05-05 16:55 18.49619 -64.29697 22482 ft 363 kts 101°
2026-05-05 16:55 18.49179 -64.27094 22048 ft 360 kts 101°
2026-05-05 16:55 18.48742 -64.24506 21606 ft 357 kts 101°
2026-05-05 16:56 18.48308 -64.21938 21201 ft 354 kts 101°
2026-05-05 16:56 18.47882 -64.19422 20790 ft 352 kts 100°
2026-05-05 16:56 18.47455 -64.16892 20367 ft 350 kts 100°
2026-05-05 16:56 18.47028 -64.14371 19951 ft 349 kts 99°
2026-05-05 16:57 18.46603 -64.11862 19537 ft 347 kts 99°
2026-05-05 16:57 18.46179 -64.09355 19118 ft 346 kts 99°
2026-05-05 16:57 18.45756 -64.06861 18688 ft 345 kts 99°
2026-05-05 16:57 18.45334 -64.04376 18242 ft 344 kts 98°
2026-05-05 16:58 18.44913 -64.01895 17779 ft 343 kts 99°
2026-05-05 16:58 18.44494 -63.99431 17342 ft 340 kts 98°
2026-05-05 16:58 18.44078 -63.96983 16922 ft 338 kts 99°
2026-05-05 16:58 18.43670 -63.94588 16511 ft 336 kts 99°
2026-05-05 16:59 18.43259 -63.92175 16113 ft 333 kts 99°
2026-05-05 16:59 18.42851 -63.89785 15697 ft 331 kts 99°
2026-05-05 16:59 18.42446 -63.87410 15290 ft 328 kts 99°
2026-05-05 16:59 18.42044 -63.85055 14893 ft 326 kts 100°
2026-05-05 17:00 18.41643 -63.82709 14493 ft 323 kts 100°
2026-05-05 17:00 18.41246 -63.80386 14097 ft 321 kts 100°
2026-05-05 17:00 18.40852 -63.78081 13665 ft 319 kts 100°
2026-05-05 17:00 18.40460 -63.75792 13237 ft 316 kts 100°
2026-05-05 17:01 18.40072 -63.73525 12822 ft 313 kts 100°
2026-05-05 17:01 18.39686 -63.71277 12415 ft 310 kts 101°
2026-05-05 17:01 18.39303 -63.69051 12012 ft 307 kts 101°
2026-05-05 17:01 18.38722 -63.66908 11592 ft 304 kts 118°
2026-05-05 17:02 18.37489 -63.65180 11529 ft 290 kts 134°
2026-05-05 17:02 18.36049 -63.63673 11037 ft 292 kts 137°
2026-05-05 17:02 18.34558 -63.62222 10609 ft 292 kts 138°
2026-05-05 17:02 18.33082 -63.60800 10231 ft 291 kts 138°
2026-05-05 17:03 18.31613 -63.59376 10014 ft 282 kts 138°
2026-05-05 17:03 18.30163 -63.57961 9566 ft 283 kts 137°
2026-05-05 17:03 18.28733 -63.56557 9195 ft 280 kts 137°
2026-05-05 17:03 18.27314 -63.55158 8825 ft 278 kts 137°
2026-05-05 17:04 18.25914 -63.53774 8463 ft 275 kts 137°
2026-05-05 17:04 18.24522 -63.52396 8093 ft 273 kts 136°
2026-05-05 17:04 18.23146 -63.51030 7732 ft 271 kts 136°
2026-05-05 17:04 18.21784 -63.49679 7386 ft 269 kts 136°
2026-05-05 17:05 18.20426 -63.48332 7029 ft 267 kts 136°
2026-05-05 17:05 18.19081 -63.46998 6676 ft 265 kts 136°
2026-05-05 17:05 18.17747 -63.45673 6312 ft 262 kts 136°
2026-05-05 17:05 18.16425 -63.44362 5952 ft 260 kts 136°
2026-05-05 17:06 18.15119 -63.43066 5643 ft 256 kts 136°
2026-05-05 17:06 18.13834 -63.41790 5278 ft 254 kts 135°
2026-05-05 17:06 18.12555 -63.40522 4946 ft 251 kts 135°
2026-05-05 17:06 18.11305 -63.39282 4596 ft 249 kts 135°
2026-05-05 17:07 18.10050 -63.38038 4245 ft 247 kts 135°
2026-05-05 17:07 18.08803 -63.36801 3908 ft 245 kts 135°
2026-05-05 17:07 18.07582 -63.35591 3737 ft 235 kts 135°
2026-05-05 17:07 18.06422 -63.34441 3624 ft 224 kts 135°
2026-05-05 17:08 18.05331 -63.33361 3524 ft 207 kts 135°
2026-05-05 17:08 18.04319 -63.32360 3419 ft 192 kts 135°
2026-05-05 17:08 18.03397 -63.31449 3325 ft 177 kts 134°
2026-05-05 17:08 18.02533 -63.30594 3257 ft 167 kts 134°
2026-05-05 17:09 18.01775 -63.29687 3185 ft 165 kts 114°
2026-05-05 17:09 18.01584 -63.28506 3048 ft 171 kts 86°
2026-05-05 17:09 18.01754 -63.27260 2846 ft 173 kts 86°
2026-05-05 17:09 18.01930 -63.26024 2667 ft 167 kts 85°
2026-05-05 17:10 18.02102 -63.24829 2442 ft 164 kts 85°
2026-05-05 17:10 18.02269 -63.23662 2238 ft 160 kts 86°
2026-05-05 17:10 18.02435 -63.22490 2047 ft 164 kts 86°
2026-05-05 17:10 18.02605 -63.21296 1809 ft 166 kts 85°
2026-05-05 17:11 18.02776 -63.20105 1590 ft 163 kts 85°
2026-05-05 17:11 18.02942 -63.18947 1384 ft 162 kts 85°
2026-05-05 17:11 18.03110 -63.17775 1166 ft 161 kts 85°
2026-05-05 17:11 18.03272 -63.16641 981 ft 152 kts 86°
2026-05-05 17:12 18.03428 -63.15550 751 ft 148 kts 85°
2026-05-05 17:12 18.03575 -63.14527 564 ft 133 kts 85°
2026-05-05 17:12 18.03708 -63.13586 420 ft 130 kts 83°
2026-05-05 17:12 18.03852 -63.12655 202 ft 126 kts 84°
2026-05-05 17:13 18.03971 -63.11776 29 ft 117 kts 84°
2026-05-05 17:13 18.04070 -63.11047 23 ft 80 kts 81°
2026-05-05 17:13 18.04130 -63.10630 20 ft 32 kts 82°
2026-05-05 17:13 18.04126 -63.10523 22 ft 8 kts 109°
2026-05-05 17:14 18.04146 -63.10508 20 ft 4 kts 307°
2026-05-05 17:14 18.04143 -63.10541 24 ft 6 kts 259°
2026-05-05 17:14 18.04132 -63.10604 20 ft 10 kts 260°
2026-05-05 17:14 18.04124 -63.10653 20 ft 10 kts 260°
2026-05-05 17:15 18.04113 -63.10758 23 ft 13 kts 262°
2026-05-05 17:15 18.04098 -63.10859 20 ft 15 kts 261°
2026-05-05 17:15 18.04083 -63.10964 20 ft 14 kts 262°
2026-05-05 17:15 18.04069 -63.11066 25 ft 14 kts 262°
2026-05-05 17:16 18.04060 -63.11133 22 ft 14 kts 262°
2026-05-05 17:16 18.04048 -63.11235 21 ft 15 kts 271°
2026-05-05 17:16 18.04121 -63.11292 20 ft 14 kts 349°
2026-05-05 17:16 18.04214 -63.11311 20 ft 13 kts 336°
2026-05-05 17:17 18.04235 -63.11392 20 ft 11 kts 245°
2026-05-05 17:17 18.04180 -63.11414 22 ft 7 kts 173°
2026-05-05 17:17 18.04154 -63.11410 20 ft 1 kts 171°
2026-05-05 17:17 18.04150 -63.11409 20 ft 1 kts 171°